[Iaude] MPEC M15: 2024 MA [a=2.21,e=0.54,i=14.9,H=26.5]

mpec at cfa.harvard.edu mpec at cfa.harvard.edu
Tue Jun 18 07:26:19 EDT 2024


M.P.E.C. 2024-M15                                 Issued 2024 June 18, 11:24 UT

     The Minor Planet Electronic Circulars contain information on unusual
         minor planets, routine data on comets and natural satellites,
         and occasional editorial announcements.  They are published
    on behalf of Division F of the International Astronomical Union by the
          Minor Planet Center, Smithsonian Astrophysical Observatory,
                          Cambridge, MA 02138, U.S.A.
			  
             Prepared using the Tamkin Foundation Computer Network

                              MPC at CFA.HARVARD.EDU
            URL https://www.minorplanetcenter.net/    ISSN 1523-6714

                                    2024 MA                                     


Observations:
     K24M00A  C2024 06 16.35361315 52 32.990+38 24 56.92         20.40GVEM015F52
     K24M00A  C2024 06 16.36556115 52 54.835+38 19 21.87         20.43GVEM015F52
     K24M00A*1C2024 06 17.35718116 33 02.279+27 16 56.32         19.90GVEM015703
     K24M00A 1C2024 06 17.35924416 33 07.873+27 15 04.46         18.53GVEM015703
     K24M00A 1C2024 06 17.36130416 33 13.511+27 13 07.54         18.89GVEM015703
     K24M00A 1C2024 06 17.36336216 33 19.040+27 11 13.60         18.65GVEM015703
     K24M00A KC2024 06 17.40418816 35 10.957+26 32 34.40         19.37GVEM015I52
     K24M00A KC2024 06 17.40474916 35 12.512+26 32 02.08         19.49GVEM015I52
     K24M00A KC2024 06 17.40531016 35 14.078+26 31 29.60         19.60GVEM015I52
     K24M00A KC2024 06 17.40587116 35 15.648+26 30 57.64         19.36GVEM015I52
     K24M00A KC2024 06 17.45757016 37 42.438+25 40 15.38         18.94GVEM015I52
     K24M00A KC2024 06 17.45814816 37 44.112+25 39 39.89         19.06GVEM015I52
     K24M00A KC2024 06 17.45873016 37 45.790+25 39 05.26         18.75GVEM015I52
     K24M00A KC2024 06 17.45931916 37 47.528+25 38 30.23         19.38GVEM015I52
     K24M00A KB2024 06 17.80932916 57 08.284+19 12 53.25         18.3 GXEM015M45
     K24M00A KB2024 06 17.81131316 57 14.593+19 10 27.90         18.1 GXEM015M45
     K24M00A KB2024 06 17.81329616 57 20.849+19 08 02.24         18.1 GXEM015M45
     K24M00A KC2024 06 17.82150 16 57 54.52 +18 58 36.6                VEM015C82
     K24M00A KC2024 06 17.82563 16 58 07.57 +18 53 30.9          18.0 GVEM015C82
     K24M00A KB2024 06 17.84460616 59 08.827+18 30 33.84         18.4 GXEM015L34
     K24M00A KC2024 06 17.85188716 59 31.838+18 20 14.89         19.7 GVEM015M60
     K24M00A KC2024 06 17.85325616 59 34.52 +18 18 17.6          18.4 GVEM015595
     K24M00A KC2024 06 17.85462616 59 40.572+18 16 49.01         18.0 GVEM015M60
     K24M00A KC2024 06 17.86365817 00 09.88 +18 05 28.6                VEM015104
     K24M00A KC2024 06 17.86625017 00 17.851+18 02 10.68         18.6 GVEM015M60
     K24M00A KC2024 06 17.86726917 00 21.51 +18 00 55.4                VEM015104
     K24M00A HC2024 06 17.86857517 00 25.95 +18 12 04.7          19   GVEM015M21
     K24M00A KB2024 06 17.87040417 00 30.358+17 55 56.75         18.4 VZEM015K74
     K24M00A KC2024 06 17.87087617 00 33.02 +17 56 21.0          18.0 GVEM015104
     K24M00A KB2024 06 17.87511017 00 45.550+17 49 58.15         18.6 VZEM015K74
     K24M00A KC2024 06 17.87716817 00 51.33 +17 48 04.3          18.7 GVEM015595
     K24M00A KB2024 06 17.87749 17 00 55.05 +17 47 46.8          19.1 GXEM015G15
     K24M00A KB2024 06 17.87805217 00 55.097+17 46 12.97         17.8 VZEM015K74
     K24M00A KB2024 06 17.87916 17 01 00.44 +17 45 39.6          18.0 GXEM015G15
     K24M00A KB2024 06 17.88094217 01 04.428+17 42 31.75         18.2 VZEM015K74
     K24M00A KC2024 06 17.89336617 01 43.48 +17 27 25.9          18.6 GVEM015L01
     K24M00A KC2024 06 17.89450917 01 47.16 +17 25 57.2          18.6 GVEM015L01
     K24M00A KC2024 06 17.89565517 01 50.87 +17 24 28.7          18.6 GVEM015L01
     K24M00A KC2024 06 17.89679017 01 54.56 +17 23 00.7          18.7 GVEM015L01
     K24M00A KC2024 06 17.89793017 01 58.22 +17 21 32.8          18.8 GVEM015L01
     K24M00A KB2024 06 17.95375917 05 09.01 +16 08 21.5          18.7 GXEM015958
     K24M00A KC2024 06 17.95618417 05 16.579+16 03 43.70         18.7 GVEM015J95
     K24M00A KB2024 06 17.95865717 05 25.01 +16 01 47.5          18.5 GXEM015958
     K24M00A KC2024 06 17.96092017 05 32.203+15 57 23.11         18.7 GVEM015J95
     K24M00A KC2024 06 17.96349717 05 40.776+15 53 55.10         18.4 GVEM015J95
     K24M00A KB2024 06 17.96969917 06 01.35 +15 46 56.8          17.8 GXEM015958
     K24M00A KB2024 06 17.97192217 06 08.64 +15 43 56.9          18.1 GXEM015958
     K24M00A KB2024 06 17.97414217 06 15.95 +15 40 56.5          19.1 GXEM015958
     K24M00A KB2024 06 18.08320617 12 49.721+13 21 42.37               XEM015Y05
     K24M00A KB2024 06 18.08574717 12 58.198+13 18 04.42         18.9 GXEM015Y05
     K24M00A KB2024 06 18.08824417 13 06.555+13 14 29.40         19.2 GXEM015Y05
     K24M00A mC2024 06 18.21932617 21 27.450+09 48 26.46         17.69GVEM015I52
     K24M00A mC2024 06 18.21942617 21 27.785+09 48 16.85         17.84GVEM015I52
     K24M00A mC2024 06 18.21953217 21 28.163+09 48 07.24         17.80GVEM015I52
     K24M00A mC2024 06 18.21963217 21 28.534+09 47 58.20         17.73GVEM015I52

Observer details:
104 San Marcello Pistoiese.  Observers P. Bacci, M. Maestripieri.  Measurer P.
    Bacci.  0.60-m f/4.0 reflector + CCD.
595 Farra d'Isonzo.  Observers F. Bressan, E. Pettarin.  Measurer E.
    Pettarin.  0.61-m f/4.5 reflector + CCD.
703 Catalina Sky Survey.  Observer G. J. Leonard.  Measurers T. Beuden, V. F.
    Carvajal, D. Fay, J. B. Fazekas, D. C. Fuls, A. R. Gibbs, A. D. Grauer, H.
    Groeller, J. K. Hogan, R. A. Kowalski, S. M. Larson, G. J. Leonard, D.
    Rankin, R. L. Seaman, F. C. Shelly, K. W. Wierzchos.  0.68-m Schmidt + 10K
    CCD.
958 Observatoire de Dax.  Observer P. Dupouy.  0.50-m f/4.5 Reflector + CMO.
C82 Osservatorio Astronomico Nastro Verde, Sorrento.  Observer N. Ruocco.
    0.35-m f/6.3  Schmidt-Cassegrain + CCD.
F52 Pan-STARRS 2, Haleakala.  Observers J. Herman, T. Lowe, P. Minguez, A.
    Schultz, I. Smith.  Measurers K. Chambers, T. de Boer, J. Fairlamb, H.
    Gao, M. Huber, C.-C. Lin, E. Magnier, Y. Ramanjooloo, R. Wainscoat, R.
    Weryk.  1.8-m Ritchey-Chretien + CCD.
G15 Magroforte Observatory, Alessandria.  Observer A. De Pieri.  0.23-m f/6.7
    SC + CMO.
I52 Steward Observatory, Mt. Lemmon Station.  Observer G. J. Leonard.
    Measurers T. Beuden, V. F. Carvajal, D. Fay, J. B. Fazekas, D. C. Fuls, A.
    R. Gibbs, A. D. Grauer, H. Groeller, J. K. Hogan, R. A. Kowalski, S. M.
    Larson, G. J. Leonard, D. Rankin, R. L. Seaman, F. C. Shelly, K. W.
    Wierzchos.  1.0-m prime focus + CCD.
J95 Great Shefford.  Observer P. Birtwhistle.  0.41-m f/6.3 Schmidt-Cassegrain
    + CCD.
K74 Muensterschwarzach Observatory, Schwarzach.  Observer C. Gerhard.  0.30-m
    f/3.75 reflector + CMO.
L01 Visnjan Observatory, Tican.  Observers K. Korlevic, L. Poropat, I. Lyon.
    Measurer K. Korlevic.  1.0-m f/2.9 reflector + CCD.
L34 Galhassin Robotic Telescope, Isnello.  Observer A. Nastasi.  0.40-m f/3.8
    400mm Reflector + CMO.
M21 Schiaparelli Southern Observatory, Hakos.  Observers A. Aletti, F.
    Bellini, L. Buzzi, G. Galli.  Measurer L. Buzzi.  0.36-m f/8.4 reflector +
    CCD.
M45 Starhopper Observatory, Sfantu Gheorghe.  Observer F. Ursache.  0.41-m
    f/7.5 reflector + CMO.
M60 Virgil Observatory, Loiano.  Observer A. Carbognani.  0.3-m f/4.0
    Reflector + CCD.
Y05 SONEAR Wykrota-CEAMIG, Serra da Piedade.  Observers C. Jacques, A.
    Caetano, E. Pimentel.  Measurer C. Jacques.  0.45-m f/2.9 reflector + CMO.

Orbital elements:
2024 MA                                                  Earth MOID = 0.0106 AU
Epoch 2024 Mar. 31.0 TT = JDT 2460400.5                 Veres                   
M 338.38923              (2000.0)            P               Q                  
n   0.30043218     Peri.  170.01295     -0.19512675     +0.94628268             
a   2.2078611      Node    88.39205     -0.91670301     -0.08250575             
e   0.5373087      Incl.   14.94717     -0.34868489     -0.31263698             
P   3.28           H   26.59          G   0.15           U   7                  
Residuals in seconds of arc
240616 F52  0.2+  0.5-    240617 L34  0.4-  0.6+    240617 L01  0.3+  0.1-
240616 F52  0.3-  0.3+    240617 M60  0.8+  0.3-    240617 L01  0.0   0.4+
240617 703  1.1-  1.8-    240617 595  0.0   0.3-    240617 958  0.3+  0.3+
240617 703  0.6-  1.2+    240617 M60  0.1+  0.2-    240617 J95  0.3+  0.0
240617 703  0.5+  0.8-    240617 104  0.1+  0.3-    240617 958  0.5-  0.4-
240617 703  0.2+  0.2+    240617 M60  0.0   0.3-    240617 J95  0.5-  0.2+
240617 I52  0.2+  0.1+    240617 104  0.6+  0.2+    240617 J95  0.1-  0.0
240617 I52  0.1+  0.1+    240617 M21 (0.2+  1.0-)   240617 958  0.4+  0.1-
240617 I52  0.2+  0.0     240617 K74  0.7+  0.2+    240617 958  0.0   0.2+
240617 I52  0.3+  0.4+    240617 104  0.5-  0.0     240617 958  0.1-  0.1-
240617 I52  0.1-  0.6+    240617 K74  0.3+  0.3+    240618 Y05  0.0   0.2-
240617 I52  0.1-  0.2-    240617 595  0.1+  0.1+    240618 Y05  0.2-  0.2+
240617 I52  0.3-  0.1+    240617 G15  0.6-  0.6-    240618 Y05  0.2-  0.2+
240617 I52  0.2+  0.3+    240617 K74  0.7+  0.1-    240618 I52  0.1+  0.2+
240617 M45 (1.2+  1.4-)   240617 G15  0.5-  0.1-    240618 I52  0.2-  0.2-
240617 M45 (1.5+  1.5-)   240617 K74  0.3+  0.0     240618 I52  0.1-  0.1-
240617 M45 (1.1+  1.7-)   240617 L01  0.1-  0.1+    240618 I52  0.1+  0.0
240617 C82 (1.9+  1.3-)   240617 L01  0.2-  0.1-
240617 C82 (0.7+  2.7-)   240617 L01  0.1-  0.0

Ephemeris:
2024 MA                  a,e,i = 2.21, 0.54, 15                  q = 1.0216
Date    TT    R. A. (2000) Decl.     Delta      r    Elong.  Phase     V
2024 05 19    13 32 44.9 +55 48 11   0.1918  1.0604    99.5    70.2    25.6
...
2024 06 03    13 48 21.2 +55 13 30   0.1023  1.0263    93.9    80.4    24.5
...
2024 06 11    14 22 08.1 +52 26 39   0.05212 1.0216    95.4    81.7    23.1
...
2024 06 17    16 17 11.6 +32 08 03   0.01628 1.0244   120.9    58.3    19.8
2024 06 18    17 07 44.1 +15 12 31   0.01214 1.0254   140.2    39.3    18.6
2024 06 19    18 15 00.1 -12 23 45   0.01068 1.0265   167.6    12.3    17.5
...
2024 06 25    23 11 44.9 -59 01 29   0.04096 1.0363   118.1    59.9    21.9
...
2024 07 03    00 13 41.3 -59 10 02   0.09160 1.0573   114.0    61.4    23.7
...
2024 07 18    00 24 28.7 -58 52 53   0.1858  1.1179   118.9    52.7    25.1

M. P. C. Staff               (C) Copyright 2024 MPC           M.P.E.C. 2024-M15





More information about the Iaude mailing list